Albuquerque, NM

1:32 AM MST on February 28, 2017 (GMT -0700)
Double Eagle Ii

Weather History for KAEG - March, 2013

Change the Weather History Date:

Sunday, March 24, 2013

  Actual Average (KABQ) Record (KABQ)
Temperature  
Mean Temperature 31 °F -  
Max Temperature 48 °F 66 °F 80 °F (1938)
Min Temperature 14 °F 35 °F 17 °F (1914)
Degree Days  
Heating Degree Days 34    
Moisture  
Dew Point -11 °F    
Average Humidity 17    
Maximum Humidity 27    
Minimum Humidity 10    
Precipitation  
Precipitation 0.00 in - - ()
Sea Level Pressure  
Sea Level Pressure 30.05 in    
Wind  
Wind Speed 9 mph (NW)    
Max Wind Speed 26 mph    
Max Gust Speed 30 mph    
Visibility 10 miles    
Events      
Averages and records for this station are not official NWS values.
T = Trace of Precipitation, MM = Missing Value Source: NWS Daily Summary

Daily Weather History Graph

Daily Weather History Graph

Search for Another Location

Airport or City:

Trip Planner

Search our weather history database for the weather conditions in past years. The results will help you decide how hot, cold, wet, or windy it might be!

Date:

Astronomy

Mar. 24, 2013 Rise Set
Actual Time 7:04 AM MDT 7:22 PM MDT
Civil Twilight 6:39 AM MDT 7:47 PM MDT
Nautical Twilight 6:09 AM MDT 8:17 PM MDT
Astronomical Twilight 5:39 AM MDT 8:47 PM MDT
Moon 4:58 PM MDT (3/24) 5:11 AM MDT (3/24)
Length of Visible Light 13h 08m
Length of Day
12h 17m
Waxing Gibbous, 92% of the Moon is Illuminated
Mar 24
Waxing Gibbous
Mar 27
Full
Apr 2
Last Quarter
Apr 10
New
Apr 18
First Quarter

Hourly Weather History & Observations

Time (MDT) Temp. Windchill Dew Point Humidity Pressure Visibility Wind Dir Wind Speed Gust Speed Precip Events Conditions
12:15 AM 26.6 °F 15.2 °F -18.4 °F 13% 30.06 in 10.0 mi North 13.8 mph - N/A   Overcast
12:35 AM 26.6 °F 19.1 °F -16.6 °F 14% 30.07 in 10.0 mi North 6.9 mph - N/A   Overcast
12:55 AM 24.8 °F 17.9 °F -16.6 °F 16% 30.08 in 10.0 mi NW 5.8 mph - N/A   Overcast
1:35 AM 26.6 °F 18.2 °F -16.6 °F 14% 30.09 in 10.0 mi NW 8.1 mph - N/A   Overcast
1:55 AM 26.6 °F 19.1 °F -16.6 °F 14% 30.08 in 10.0 mi NNW 6.9 mph - N/A   Overcast
2:15 AM 26.6 °F 18.2 °F -14.8 °F 16% 30.08 in 10.0 mi WNW 8.1 mph - N/A   Overcast
2:35 AM 26.6 °F 19.1 °F -16.6 °F 14% 30.08 in 10.0 mi NW 6.9 mph - N/A   Overcast
2:55 AM 24.8 °F 19.1 °F -14.8 °F 17% 30.08 in 10.0 mi NW 4.6 mph - N/A   Overcast
3:15 AM 24.8 °F 17.9 °F -14.8 °F 17% 30.08 in 10.0 mi WNW 5.8 mph - N/A   Overcast
3:35 AM 24.8 °F 19.1 °F -16.6 °F 16% 30.07 in 10.0 mi NNW 4.6 mph - N/A   Overcast
3:55 AM 24.8 °F 17.9 °F -14.8 °F 17% 30.06 in 10.0 mi NNW 5.8 mph - N/A   Overcast
4:15 AM 23.0 °F 15.8 °F -16.6 °F 17% 30.06 in 10.0 mi NW 5.8 mph - N/A   Overcast
4:35 AM 21.2 °F 13.6 °F -16.6 °F 18% 30.06 in 10.0 mi NNW 5.8 mph - N/A   Overcast
4:55 AM 15.8 °F - -20.2 °F 19% 30.07 in 10.0 mi Calm Calm - N/A   Overcast
5:15 AM 15.8 °F - -18.4 °F 21% 30.08 in 10.0 mi Calm Calm - N/A   Overcast
5:35 AM 15.8 °F - -18.4 °F 21% 30.09 in 10.0 mi Calm Calm - N/A   Overcast
5:50 AM 14.0 °F 8.2 °F -18.4 °F 22% 30.09 in 10.0 mi West 3.5 mph - N/A   Clear
6:50 AM 15.8 °F 4.2 °F -13.0 °F 27% 30.10 in 10.0 mi WNW 9.2 mph - N/A   Clear
7:50 AM 19.4 °F 11.5 °F -13.0 °F 23% 30.11 in 10.0 mi Variable 5.8 mph - N/A   Clear
8:50 AM 35.6 °F 30.7 °F -9.4 °F 14% 30.12 in 10.0 mi Variable 5.8 mph - N/A   Clear
9:50 AM 32.0 °F 28.7 °F -7.6 °F 18% 30.11 in 10.0 mi ENE 3.5 mph - N/A   Clear
10:50 AM 33.8 °F 28.6 °F -9.4 °F 15% 30.10 in 10.0 mi Variable 5.8 mph - N/A   Clear
11:50 AM 35.6 °F 29.9 °F -11.2 °F 13% 30.08 in 10.0 mi Variable 6.9 mph - N/A   Clear
12:50 PM 39.2 °F 31.2 °F -11.2 °F 11% 30.05 in 10.0 mi WSW 13.8 mph - N/A   Clear
1:50 PM 42.8 °F 37.5 °F -9.4 °F 11% 30.01 in 10.0 mi West 9.2 mph 20.7 mph N/A   Clear
2:50 PM 44.6 °F 39.7 °F -9.4 °F 10% 29.97 in 10.0 mi South 9.2 mph - N/A   Clear
3:50 PM 46.4 °F 43.5 °F -5.8 °F 11% 29.93 in 10.0 mi WSW 5.8 mph 18.4 mph N/A   Clear
4:50 PM 48.2 °F - -7.6 °F 10% 29.92 in 10.0 mi NNW 20.7 mph 25.3 mph N/A   Clear
5:50 PM 48.2 °F - -5.8 °F 10% 29.92 in 10.0 mi NNW 26.5 mph - N/A   Clear
6:50 PM 44.6 °F 36.1 °F -4.0 °F 13% 29.93 in 10.0 mi NNW 21.9 mph 29.9 mph N/A   Clear
7:50 PM 41.0 °F 32.2 °F -4.0 °F 15% 29.96 in 10.0 mi NNW 18.4 mph - N/A   Clear
8:50 PM 39.2 °F 31.2 °F -2.2 °F 17% 30.00 in 10.0 mi NNW 13.8 mph - N/A   Clear
9:50 PM 35.6 °F 25.5 °F -4.0 °F 18% 30.04 in 10.0 mi North 17.3 mph - N/A   Clear
10:15 PM 35.6 °F 25.9 °F -2.2 °F 20% 30.04 in 10.0 mi North 16.1 mph - N/A   Overcast
10:55 PM 32.0 °F 24.2 °F -4.0 °F 21% 30.06 in 10.0 mi North 9.2 mph - N/A   Overcast
11:15 PM 32.0 °F 21.6 °F -4.0 °F 21% 30.06 in 10.0 mi North 15.0 mph - N/A   Overcast
11:35 PM 32.0 °F 22.1 °F -2.2 °F 23% 30.07 in 10.0 mi North 13.8 mph - N/A   Overcast
11:55 PM 30.2 °F 19.8 °F -4.0 °F 23% 30.07 in 10.0 mi North 13.8 mph - N/A   Overcast